Theta_e
315 315 315 314 312 310 310 320 313 322 323 309 309 304 307 306 310 314 314 313 312 306 307 305 305 307 310 315 311 305 307 307 304 307 314 315 311 307 303 298 298 300 300 303
316 315 314 313 311 310 308 317 320 322 320 304 305 308 307 309 309 310 313 312 314 310 308 305 309 312 317 316 316 309 309 306 300 304 307 310 308 309 310 307 301 299 299 306
316 315 314 313 311 311 309 317 315 315 316 314 308 307 309 306 314 315 315 314 313 312 310 312 310 312 316 318 316 328 317 307 305 300 303 307 306 309 310 304 297 300 307 308
316 315 314 313 312 310 310 319 319 321 308 308 309 310 311 311 310 315 315 314 313 314 309 312 310 313 313 316 320 315 311 304 307 307 310 310 308 310 310 307 305 298 304 307
315 315 314 313 312 310 315 322 320 321 317 318 309 308 310 312 313 314 313 314 315 314 311 312 309 314 312 311 314 308 309 305 308 303 311 310 307 311 311 310 310 304 309 311
315 315 315 314 312 311 318 326 325 319 313 317 311 309 314 314 319 318 320 318 314 312 315 318 317 318 315 315 311 307 308 307 305 301 309 308 303 309 310 311 310 305 304 312
314 315 315 314 313 311 310 323 323 317 314 317 317 317 313 314 318 316 317 318 316 320 324 321 317 314 316 315 314 314 310 307 305 301 306 297 306 315 315 311 310 309 316 319
313 314 315 315 313 312 309 316 321 317 312 318 318 317 315 318 317 315 315 317 320 323 318 311 307 307 308 311 314 311 309 306 302 297 296 302 307 309 308 305 306 313 315 319
313 313 314 315 314 312 311 314 322 318 316 318 320 317 318 312 311 314 316 320 324 319 313 311 303 301 307 305 308 309 309 309 303 300 295 293 304 312 313 312 302 314 319 317
312 313 313 314 314 312 310 312 320 320 313 321 316 314 314 320 319 315 316 318 316 318 310 306 304 304 310 304 304 306 305 303 301 301 298 303 314 314 314 300 304 319 321 320
312 312 312 313 313 313 310 310 317 319 312 313 316 318 315 315 318 313 317 316 316 314 308 306 306 306 307 307 309 305 303 301 299 301 300 299 319 317 309 313 318 320 320 321
312 312 312 312 312 313 312 312 316 320 317 313 318 318 319 319 320 316 320 317 317 317 314 314 312 308 309 308 302 310 303 307 304 305 309 316 317 315 319 320 318 318 316 318
311 311 311 312 312 312 311 307 312 316 315 316 317 316 321 322 320 322 315 318 320 319 321 316 313 308 310 304 306 307 311 316 308 307 313 315 316 320 321 320 318 319 319 319
311 311 311 311 311 311 311 307 311 312 316 311 313 324 323 325 321 325 323 319 320 319 320 315 312 308 314 306 309 307 313 312 310 308 314 316 319 320 319 320 321 320 320 319
310 310 310 310 311 311 309 310 312 315 313 309 311 316 322 321 321 320 324 318 316 316 314 312 309 312 311 311 310 307 313 311 307 308 319 317 317 319 322 320 318 318 319 317
310 309 310 310 310 310 310 315 320 318 322 314 307 317 319 322 321 318 319 319 316 316 314 313 314 320 314 307 305 314 313 317 321 318 321 320 320 322 323 320 318 318 316 314
309 310 310 310 310 307 308 310 316 310 315 315 309 308 317 322 323 317 317 318 317 317 315 312 312 315 315 309 305 315 317 319 320 324 322 318 320 317 321 319 318 317 316 314
309 310 310 309 309 308 308 313 311 312 314 317 308 310 315 320 314 312 318 316 316 317 314 315 313 315 315 307 314 316 319 319 319 321 323 321 320 319 318 318 316 315 313 311
309 309 309 309 310 311 319 318 314 317 318 311 311 306 307 319 316 316 316 318 311 317 311 311 313 311 307 314 314 317 319 317 318 320 321 321 319 318 317 316 314 311 309 309
308 307 311 310 319 319 319 317 314 313 315 316 310 317 310 316 315 314 315 315 310 307 312 317 311 308 316 322 321 324 321 320 319 318 317 318 316 316 315 312 311 310 309 310
311 311 312 318 319 319 315 311 307 309 307 310 309 309 307 317 311 311 316 312 312 305 308 310 308 306 314 322 325 325 324 322 322 324 322 321 319 316 313 311 311 310 311 310
305 304 308 314 317 312 308 307 312 309 306 314 308 309 310 314 321 316 316 311 312 306 316 310 305 314 323 324 324 325 323 323 322 321 320 320 319 316 313 311 310 310 311 312
311 306 309 310 309 296 301 300 305 307 313 315 314 311 313 317 320 316 315 309 307 315 309 307 311 322 323 321 322 322 324 322 320 318 317 316 315 315 312 309 309 310 311 311
304 303 291 302 301 304 305 306 309 314 317 316 315 313 311 317 313 314 310 312 311 305 303 305 318 322 324 323 323 322 320 319 318 317 315 314 313 312 312 311 310 309 308 308
301 303 294 300 307 310 310 313 313 315 320 316 314 315 313 312 311 312 311 307 304 306 304 313 323 325 324 323 323 321 319 318 317 316 314 313 312 311 311 312 311 310 309 307
301 301 301 307 306 306 309 309 314 322 317 316 317 313 309 308 309 307 306 305 303 309 320 325 326 325 325 325 323 321 321 320 318 317 315 313 311 311 311 311 312 312 310 307
296 297 303 303 304 306 308 312 310 316 316 313 313 307 306 312 306 306 309 306 312 321 323 326 327 328 328 326 323 322 321 321 319 317 315 313 313 314 312 311 312 313 312 310
Wind_Speed
20 20 20 21 22 29 0 4 3 10 11 5 4 9 8 8 25 25 16 6 7 10 11 10 9 11 10 12 6 6 4 6 6 5 5 7 8 5 4 4 10 4 7 5
20 21 21 20 17 15 6 4 5 6 9 5 8 10 19 22 25 26 12 7 8 5 7 7 3 4 12 9 8 3 5 3 4 11 8 6 6 5 13 8 2 2 5 5
21 22 22 20 17 12 3 4 4 2 5 8 12 11 14 19 19 18 11 10 10 11 8 6 6 4 6 11 6 2 6 6 7 7 9 3 7 8 10 6 4 3 4 6
21 22 22 23 23 22 5 4 5 5 5 10 12 14 14 19 16 15 8 11 11 11 8 11 12 1 4 10 3 2 8 5 8 6 7 4 3 3 12 16 13 4 8 10
20 21 22 24 29 26 4 1 2 7 10 13 13 13 15 12 16 5 6 6 21 25 11 5 1 3 6 7 9 2 2 7 4 4 2 8 7 6 9 15 17 4 9 7
19 21 21 22 24 24 5 4 3 2 9 11 6 8 5 2 5 9 15 18 18 18 7 4 11 10 6 5 3 6 3 7 5 5 3 7 7 14 2 9 13 7 8 5
19 20 20 20 18 15 5 5 4 4 8 10 11 19 14 4 2 3 7 13 3 13 6 3 8 5 14 17 20 8 12 7 4 5 8 3 11 16 14 9 6 5 12 11
18 20 19 20 18 15 4 5 4 4 6 8 15 20 6 8 4 8 7 9 7 8 7 4 3 6 4 7 20 16 5 4 4 5 1 6 9 9 4 5 6 8 10 10
16 19 20 19 19 19 6 5 6 3 4 3 18 15 3 3 2 5 3 27 18 5 5 6 1 5 8 6 10 4 6 6 6 4 2 2 8 4 8 8 5 6 12 10
15 17 19 20 21 19 8 6 6 3 4 7 11 10 9 7 1 3 10 23 11 8 5 8 8 3 3 2 13 10 3 3 3 2 0 3 9 8 5 5 3 14 14 14
14 15 17 19 20 20 11 8 8 3 4 12 8 10 9 9 6 4 16 8 5 1 2 2 1 5 9 6 3 5 4 4 2 1 0 1 9 9 6 4 8 14 13 10
12 14 16 17 18 18 15 5 8 8 5 8 14 17 15 11 7 4 5 5 6 2 5 5 4 5 5 4 2 7 2 5 5 7 6 4 4 7 8 11 12 9 13 11
12 13 15 16 16 15 11 6 6 6 4 8 6 8 10 13 9 6 1 4 4 6 2 1 2 4 4 3 3 6 4 7 4 7 3 6 8 11 10 12 14 13 12 13
12 13 15 16 16 15 11 5 6 5 5 5 6 13 3 5 2 4 3 5 6 3 4 3 3 2 3 2 3 3 4 3 4 3 5 8 8 11 11 14 13 12 12 12
12 13 15 16 17 16 11 7 6 7 4 5 9 18 13 7 5 4 1 5 5 2 2 1 1 2 2 2 2 1 2 2 2 4 7 7 7 9 13 13 11 9 11 10
12 14 15 16 16 16 6 3 3 5 5 3 5 5 7 4 4 5 3 3 3 2 2 3 3 3 4 1 3 3 8 3 10 6 7 12 10 12 14 13 10 8 10 9
13 14 15 15 13 6 4 4 2 8 6 3 5 4 4 7 2 1 2 3 3 2 1 1 1 1 3 2 2 4 7 7 8 12 13 11 10 9 10 13 9 7 10 9
14 15 16 16 17 13 7 4 15 4 4 4 4 5 1 5 3 2 3 2 2 3 1 3 2 2 2 2 2 2 4 9 7 9 9 10 13 12 10 9 7 6 8 8
16 17 21 6 4 4 1 4 8 3 2 4 4 3 4 5 3 3 1 2 1 3 3 3 1 2 3 5 5 2 7 7 8 10 14 14 13 10 8 8 7 8 7 7
17 6 4 3 2 6 4 1 3 4 4 5 5 4 7 2 4 2 3 3 2 2 6 3 3 4 4 5 9 9 9 8 8 12 10 10 11 9 8 9 8 7 6 7
3 3 2 5 4 3 4 4 4 5 5 5 6 8 7 6 4 4 2 4 3 3 6 5 4 4 6 9 9 9 9 8 6 9 8 10 12 11 10 8 7 6 6 6
5 5 7 5 4 4 5 4 4 5 6 4 7 6 6 4 1 1 2 2 2 4 1 3 3 2 2 12 10 9 8 11 14 14 13 12 12 10 10 8 6 7 7 6
3 3 4 3 4 1 7 8 5 4 4 4 5 5 5 3 1 2 1 2 3 1 2 4 4 4 6 9 8 8 13 16 16 14 14 13 11 10 9 8 6 6 6 6
2 3 5 5 6 7 6 8 7 5 2 4 3 3 4 2 2 2 4 3 2 3 5 5 5 7 6 7 7 12 15 15 14 13 12 10 9 8 8 8 6 6 6 4
3 3 5 9 9 8 7 8 9 8 3 4 2 1 2 3 3 4 2 5 5 3 6 2 7 8 8 7 9 13 14 13 11 10 9 8 9 7 7 7 7 7 5 4
3 5 7 9 8 7 6 7 5 2 3 3 5 3 2 4 4 4 5 3 3 3 4 7 8 8 7 8 9 10 12 11 10 8 8 8 8 7 7 5 5 7 7 6
4 7 9 10 9 8 6 9 5 12 2 1 2 5 6 2 3 6 5 6 3 8 8 7 7 7 7 10 10 10 10 10 9 8 8 7 6 6 6 6 4 6 7 7
Wind_Direction
340 341 342 343 340 336 329 282 260 144 153 173 213 238 249 270 280 287 289 299 276 209 209 189 218 208 210 178 176 155 218 93 86 285 312 85 80 5 345 89 283 179 157 280
340 343 346 347 346 9 321 274 260 158 183 217 234 238 250 261 271 278 277 263 301 212 221 182 180 89 33 89 72 48 353 43 57 348 342 15 65 331 318 342 13 354 87 246
342 344 346 345 343 340 273 280 270 164 210 250 269 290 270 254 266 270 292 298 301 309 320 116 148 133 104 84 88 173 71 47 126 169 223 129 288 316 317 314 40 330 157 182
342 345 347 345 340 338 206 225 274 296 228 231 241 262 283 287 288 274 274 299 263 19 27 63 356 26 113 95 107 62 116 126 132 198 230 186 258 299 320 319 308 49 164 180
342 346 350 351 344 346 246 294 339 319 291 273 215 236 261 289 294 319 335 50 73 45 35 128 158 351 71 37 318 175 256 176 120 226 24 314 326 347 300 302 305 45 81 68
343 346 351 359 359 344 333 342 243 280 282 304 281 240 232 239 331 39 28 89 92 76 293 211 112 117 85 113 159 334 291 148 150 185 39 327 312 238 107 294 294 85 91 116
344 346 349 358 9 15 298 287 305 290 296 322 330 319 239 246 249 79 14 335 244 167 156 247 150 58 90 69 307 290 261 149 139 147 142 180 236 194 204 217 27 55 97 92
343 345 348 352 359 1 302 302 316 319 302 311 330 357 51 106 276 106 7 303 269 150 112 23 39 45 97 217 255 281 82 81 54 103 356 316 351 23 77 115 32 91 113 103
342 343 346 349 353 357 318 267 251 289 288 256 333 338 149 149 295 85 37 299 250 63 85 32 73 183 189 216 354 94 79 103 105 50 58 279 272 127 98 91 20 35 93 105
337 341 343 346 350 353 334 278 276 288 284 250 347 345 348 43 81 149 129 255 252 161 172 196 197 134 156 233 170 206 80 53 96 38 157 78 327 28 37 68 214 43 74 87
331 336 339 342 347 352 353 277 282 329 295 293 288 347 338 352 21 49 323 279 300 66 141 152 286 99 195 177 250 115 133 111 210 278 264 130 318 33 84 194 56 82 63 72
324 330 334 338 343 349 347 278 349 332 246 265 308 283 260 262 271 225 249 245 350 72 54 360 32 33 43 51 50 2 67 157 156 130 178 179 58 95 69 82 81 67 76 55
317 323 329 332 336 342 354 291 308 297 265 286 244 244 267 203 222 256 38 327 339 26 84 46 31 57 50 43 338 25 25 12 77 81 175 132 101 64 74 85 87 73 69 71
311 318 323 326 328 330 331 299 311 281 272 280 294 3 339 163 296 334 358 308 334 13 55 63 66 60 42 313 240 131 166 88 122 100 130 98 96 105 95 79 74 77 72 69
307 313 318 321 325 324 303 248 249 246 287 314 305 306 274 154 176 267 318 312 328 355 28 72 233 219 47 280 34 299 135 148 132 212 160 136 143 117 107 94 83 71 83 72
302 307 311 316 324 330 288 240 150 352 341 277 286 334 275 69 32 91 288 270 255 202 157 211 215 135 118 157 176 70 19 344 136 155 106 105 107 100 103 107 98 75 94 91
300 301 303 306 311 311 267 310 320 357 317 262 280 266 261 140 194 184 252 242 243 121 200 243 241 149 106 98 183 320 52 76 78 102 105 95 98 100 95 104 106 104 100 93
299 299 299 297 294 274 273 222 237 194 269 271 275 268 82 155 199 239 202 188 105 309 206 349 172 35 116 182 137 16 115 110 95 109 113 113 108 93 85 78 76 110 99 100
299 298 294 286 205 234 91 95 116 206 286 299 255 279 283 148 210 199 144 160 182 212 174 223 47 187 192 182 165 60 133 121 130 90 100 109 109 107 109 124 105 89 99 94
291 280 229 223 78 140 137 112 190 203 206 221 250 287 281 220 169 236 143 117 208 282 222 148 163 235 221 190 180 158 143 133 130 122 128 128 123 123 107 99 93 89 101 104
207 275 359 337 132 238 219 230 209 176 222 207 221 232 265 300 152 196 217 160 192 217 243 151 196 218 217 164 136 137 134 134 132 120 117 122 124 124 115 107 111 121 118 110
325 300 278 260 235 216 244 217 218 211 219 224 191 212 188 260 233 139 190 160 144 258 248 154 202 275 215 141 134 126 123 101 96 95 94 91 92 99 101 110 113 102 102 101
195 218 248 204 222 27 226 220 206 210 248 242 177 192 167 227 330 85 357 194 224 190 272 199 188 155 118 126 120 116 103 105 103 97 92 92 91 89 98 97 89 111 105 105
257 238 290 223 213 222 210 247 253 248 267 199 168 179 157 153 43 261 175 235 283 243 195 227 163 167 137 125 124 114 120 116 112 111 109 109 106 101 104 106 97 86 85 75
264 265 244 229 253 286 303 238 249 270 278 124 158 120 173 126 181 216 208 194 211 216 236 187 137 133 122 118 117 123 122 120 119 121 121 123 119 131 136 143 149 139 148 138
247 243 263 277 272 267 306 349 299 336 78 230 235 150 181 202 192 210 214 214 221 252 118 127 121 126 126 125 119 127 126 128 130 128 134 128 135 150 149 159 186 165 151 146
252 240 251 269 285 300 336 323 344 327 322 220 272 181 200 136 246 228 200 232 187 131 121 126 125 130 123 114 118 123 132 131 127 125 128 137 158 141 143 182 208 141 166 170